Perry, IA

9:53 PM CST on December 09, 2016 (GMT -0600)
Perry Municipal

Weather History for KPRO - October, 2012

Change the Weather History Date:

Saturday, October 6, 2012

  Actual Average Record
Temperature  
Mean Temperature 36 °F -  
Max Temperature 46 °F 67 °F 94 °F (1963)
Min Temperature 26 °F 41 °F 22 °F (1952)
Degree Days  
Heating Degree Days 29    
Moisture  
Dew Point 24 °F    
Average Humidity 59    
Maximum Humidity 78    
Minimum Humidity 42    
Precipitation  
Precipitation 0.00 in - - ()
Sea Level Pressure  
Sea Level Pressure 30.28 in    
Wind  
Wind Speed 8 mph (NW)    
Max Wind Speed 18 mph    
Max Gust Speed 25 mph    
Visibility 10 miles    
Events      
Averages and records for this station are not official NWS values.
T = Trace of Precipitation, MM = Missing Value Source: NWS Daily Summary

Daily Weather History Graph

Daily Weather History Graph

Search for Another Location

Airport or City:

Trip Planner

Search our weather history database for the weather conditions in past years. The results will help you decide how hot, cold, wet, or windy it might be!

Date:

Astronomy

Oct. 06, 2012 Rise Set
Actual Time 7:19 AM CDT 6:48 PM CDT
Civil Twilight 6:51 AM CDT 7:16 PM CDT
Nautical Twilight 6:19 AM CDT 7:48 PM CDT
Astronomical Twilight 5:46 AM CDT 8:21 PM CDT
Moon 11:01 PM CDT (10/6) 1:18 PM CDT (10/6)
Length of Visible Light 12h 25m
Length of Day
11h 29m
Waning Gibbous, 65% of the Moon is Illuminated
Oct 6
Waning Gibbous
Oct 8
Last Quarter
Oct 15
New
Oct 21
First Quarter
Oct 29
Full

Hourly Weather History & Observations

Time (CDT) Temp. Windchill Dew Point Humidity Pressure Visibility Wind Dir Wind Speed Gust Speed Precip Events Conditions
12:15 AM 30.4 °F 23.6 °F 21.0 °F 68% 30.25 in 10.0 mi West 6.9 mph - N/A   Clear
12:35 AM 30.9 °F 24.3 °F 21.6 °F 68% 30.24 in 10.0 mi West 6.9 mph - N/A   Clear
12:55 AM 30.7 °F 24.1 °F 21.7 °F 69% 30.24 in 10.0 mi NW 6.9 mph - N/A   Clear
1:15 AM 32.0 °F 25.6 °F 22.1 °F 67% 30.25 in 10.0 mi NW 6.9 mph - N/A   Clear
1:55 AM 30.2 °F 25.4 °F 20.5 °F 67% 30.26 in 10.0 mi West 4.6 mph - N/A   Clear
2:15 AM 28.6 °F 22.4 °F 20.7 °F 72% 30.25 in 10.0 mi NW 5.8 mph - N/A   Clear
2:35 AM 28.4 °F 23.3 °F 20.8 °F 73% 30.26 in 10.0 mi WNW 4.6 mph - N/A   Clear
2:55 AM 28.0 °F 21.7 °F 20.3 °F 73% 30.26 in 10.0 mi WNW 5.8 mph - N/A   Clear
3:15 AM 27.3 °F 19.9 °F 20.1 °F 74% 30.26 in 10.0 mi West 6.9 mph - N/A   Clear
3:35 AM 27.5 °F 20.2 °F 20.8 °F 76% 30.26 in 10.0 mi West 6.9 mph - N/A   Clear
3:55 AM 27.0 °F 18.7 °F 20.3 °F 76% 30.26 in 10.0 mi West 8.1 mph - N/A   Clear
4:35 AM 26.2 °F 20.7 °F 20.1 °F 78% 30.26 in 10.0 mi WNW 4.6 mph - N/A   Clear
4:55 AM 30.2 °F 23.4 °F 22.3 °F 72% 30.26 in 10.0 mi WNW 6.9 mph - N/A   Clear
5:15 AM 29.8 °F 23.0 °F 21.9 °F 72% 30.26 in 10.0 mi NW 6.9 mph - N/A   Clear
5:35 AM 29.3 °F 23.2 °F 21.9 °F 74% 30.26 in 10.0 mi NW 5.8 mph - N/A   Clear
5:55 AM 29.5 °F 21.1 °F 22.3 °F 75% 30.26 in 10.0 mi NW 9.2 mph - N/A   Clear
6:15 AM 30.0 °F 23.2 °F 22.5 °F 73% 30.26 in 10.0 mi NW 6.9 mph - N/A   Clear
6:35 AM 29.3 °F 21.5 °F 22.6 °F 76% 30.26 in 10.0 mi NW 8.1 mph - N/A   Clear
6:55 AM 29.8 °F 22.2 °F 22.8 °F 75% 30.26 in 10.0 mi NW 8.1 mph - N/A   Clear
7:15 AM 30.0 °F 23.2 °F 22.8 °F 75% 30.28 in 10.0 mi WNW 6.9 mph - N/A   Clear
7:35 AM 29.1 °F 23.0 °F 22.8 °F 77% 30.29 in 10.0 mi WNW 5.8 mph - N/A   Clear
7:55 AM 30.0 °F 23.2 °F 23.5 °F 77% 30.30 in 10.0 mi West 6.9 mph - N/A   Clear
8:15 AM 32.0 °F 26.4 °F 24.6 °F 74% 30.30 in 10.0 mi NW 5.8 mph - N/A   Clear
8:35 AM 34.3 °F 27.7 °F 25.5 °F 70% 30.31 in 10.0 mi WNW 8.1 mph - N/A   Clear
9:15 AM 38.1 °F 31.2 °F 25.9 °F 61% 30.31 in 10.0 mi NW 10.4 mph 16.1 mph N/A   Clear
9:35 AM 39.9 °F 33.4 °F 25.9 °F 57% 30.31 in 10.0 mi NW 10.4 mph - N/A   Clear
9:55 AM 41.2 °F 33.4 °F 25.7 °F 54% 30.31 in 10.0 mi NNW 15.0 mph 20.7 mph N/A   Clear
10:15 AM 41.5 °F 32.9 °F 25.3 °F 53% 30.31 in 10.0 mi NNW 18.4 mph 25.3 mph N/A   Mostly Cloudy
10:35 AM 42.3 °F 33.8 °F 25.2 °F 51% 30.31 in 10.0 mi NW 18.4 mph 25.3 mph N/A   Overcast
10:55 AM 43.5 °F 36.7 °F 25.5 °F 49% 30.31 in 10.0 mi North 13.8 mph 23.0 mph N/A   Overcast
11:15 AM 43.2 °F 35.6 °F 25.3 °F 49% 30.31 in 10.0 mi North 16.1 mph 21.9 mph N/A   Overcast
11:35 AM 43.9 °F 37.9 °F 25.2 °F 48% 30.31 in 10.0 mi NNW 11.5 mph - N/A   Overcast
11:55 AM 44.2 °F 38.4 °F 25.3 °F 47% 30.31 in 10.0 mi NW 11.5 mph 18.4 mph N/A   Overcast
12:15 PM 44.1 °F 37.7 °F 25.5 °F 48% 30.31 in 10.0 mi NW 12.7 mph 20.7 mph N/A   Overcast
12:35 PM 45.7 °F 39.8 °F 24.8 °F 44% 30.31 in 10.0 mi NW 12.7 mph 17.3 mph N/A   Overcast
12:55 PM 45.3 °F 39.0 °F 25.0 °F 45% 30.31 in 10.0 mi NNW 13.8 mph 21.9 mph N/A   Overcast
1:15 PM 45.1 °F 39.1 °F 24.8 °F 45% 30.31 in 10.0 mi NNW 12.7 mph - N/A   Overcast
1:35 PM 45.7 °F 39.8 °F 24.8 °F 44% 30.30 in 10.0 mi NW 12.7 mph 16.1 mph N/A   Overcast
1:55 PM 45.7 °F 41.0 °F 24.8 °F 44% 30.30 in 10.0 mi NNW 9.2 mph - N/A   Overcast
2:15 PM 45.5 °F 39.9 °F 24.8 °F 44% 30.29 in 10.0 mi NW 11.5 mph 16.1 mph N/A   Overcast
2:35 PM 45.5 °F 40.3 °F 24.6 °F 44% 30.29 in 10.0 mi NNW 10.4 mph 17.3 mph N/A   Overcast
2:55 PM 45.5 °F 40.8 °F 24.8 °F 44% 30.28 in 10.0 mi NW 9.2 mph - N/A   Overcast
3:15 PM 45.7 °F 40.6 °F 24.4 °F 43% 30.28 in 10.0 mi NW 10.4 mph - N/A   Overcast
3:35 PM 45.5 °F 40.8 °F 24.8 °F 44% 30.28 in 10.0 mi NW 9.2 mph - N/A   Overcast
3:55 PM 45.5 °F 41.3 °F 25.0 °F 45% 30.27 in 10.0 mi NW 8.1 mph - N/A   Overcast
4:15 PM 45.9 °F 40.4 °F 24.8 °F 44% 30.27 in 10.0 mi NNW 11.5 mph 16.1 mph N/A   Overcast
4:35 PM 46.2 °F 41.7 °F 24.4 °F 42% 30.27 in 10.0 mi NW 9.2 mph - N/A   Overcast
4:55 PM 46.2 °F 41.7 °F 23.9 °F 42% 30.27 in 10.0 mi North 9.2 mph - N/A   Overcast
5:15 PM 45.9 °F 41.2 °F 23.9 °F 42% 30.27 in 10.0 mi NNW 9.2 mph - N/A   Overcast
5:35 PM 45.5 °F 41.8 °F 24.3 °F 43% 30.26 in 10.0 mi North 6.9 mph - N/A   Overcast
5:55 PM 45.5 °F 42.5 °F 24.4 °F 44% 30.26 in 10.0 mi NNW 5.8 mph - N/A   Overcast
6:15 PM 45.0 °F 41.2 °F 24.6 °F 45% 30.26 in 10.0 mi NNW 6.9 mph - N/A   Overcast
6:35 PM 44.8 °F 42.4 °F 24.8 °F 46% 30.26 in 10.0 mi NW 4.6 mph - N/A   Overcast
6:55 PM 44.1 °F 41.5 °F 25.3 °F 48% 30.26 in 10.0 mi NNW 4.6 mph - N/A   Overcast
7:15 PM 41.7 °F 38.8 °F 25.3 °F 52% 30.26 in 10.0 mi NNW 4.6 mph - N/A   Mostly Cloudy
7:35 PM 41.0 °F 39.0 °F 25.5 °F 54% 30.27 in 10.0 mi NW 3.5 mph - N/A   Mostly Cloudy
7:55 PM 40.1 °F 36.9 °F 25.9 °F 57% 30.27 in 10.0 mi NW 4.6 mph - N/A   Overcast
8:15 PM 42.4 °F 38.8 °F 25.7 °F 52% 30.28 in 10.0 mi North 5.8 mph - N/A   Overcast
8:35 PM 41.9 °F 37.5 °F 25.5 °F 52% 30.29 in 10.0 mi North 6.9 mph - N/A   Overcast
8:55 PM 40.6 °F 38.6 °F 25.3 °F 54% 30.29 in 10.0 mi North 3.5 mph - N/A   Overcast
9:15 PM 38.5 °F 35.0 °F 25.2 °F 59% 30.29 in 10.0 mi North 4.6 mph - N/A   Scattered Clouds
9:35 PM 36.3 °F 33.7 °F 24.4 °F 62% 30.29 in 10.0 mi NNW 3.5 mph - N/A   Clear
9:55 PM 34.2 °F 31.2 °F 23.9 °F 66% 30.29 in 10.0 mi NNW 3.5 mph - N/A   Clear
10:15 PM 33.1 °F 30.0 °F 23.7 °F 68% 30.29 in 10.0 mi NNW 3.5 mph - N/A   Clear
10:35 PM 34.7 °F - 23.9 °F 65% 30.29 in 10.0 mi Calm Calm - N/A   Clear
10:55 PM 32.5 °F - 23.4 °F 69% 30.29 in 10.0 mi Calm Calm - N/A   Clear
11:15 PM 33.3 °F 30.2 °F 23.0 °F 66% 30.29 in 10.0 mi West 3.5 mph - N/A   Clear
11:35 PM 29.7 °F 23.7 °F 22.3 °F 74% 30.29 in 10.0 mi West 5.8 mph - N/A   Clear
11:55 PM 28.0 °F 20.8 °F 22.1 °F 78% 30.28 in 10.0 mi West 6.9 mph - N/A   Clear